TimeCDT,TemperatureF,Dew PointF,Humidity,Sea Level PressureIn,VisibilityMPH,Wind Direction,Wind SpeedMPH,Gust SpeedMPH,PrecipitationIn,Events,Conditions,WindDirDegrees,DateUTC
12:54 AM,37.9,19.9,48,30.33,10.0,NW,10.4,-,N/A,,Clear,320,2012-10-06 05:54:00
1:54 AM,35.1,19.9,54,30.34,10.0,WNW,9.2,-,N/A,,Clear,290,2012-10-06 06:54:00
2:54 AM,34.0,19.9,56,30.34,10.0,WNW,9.2,-,N/A,,Clear,300,2012-10-06 07:54:00
3:54 AM,32.0,19.0,59,30.32,10.0,NW,11.5,-,N/A,,Clear,320,2012-10-06 08:54:00
4:54 AM,32.0,19.0,59,30.33,10.0,NW,12.7,-,N/A,,Clear,310,2012-10-06 09:54:00
5:54 AM,30.9,19.0,61,30.35,10.0,NW,13.8,-,N/A,,Clear,310,2012-10-06 10:54:00
6:54 AM,30.0,19.9,66,30.35,10.0,NW,15.0,-,N/A,,Clear,320,2012-10-06 11:54:00
7:54 AM,30.9,21.0,67,30.35,10.0,NNW,15.0,-,N/A,,Clear,330,2012-10-06 12:54:00
9:54 AM,39.9,24.1,53,30.38,10.0,North,16.1,-,N/A,,Clear,350,2012-10-06 14:54:00
10:54 AM,43.0,24.1,47,30.39,10.0,NNW,20.7,24.2,N/A,,Clear,330,2012-10-06 15:54:00
11:54 AM,44.1,24.1,45,30.38,10.0,WNW,13.8,25.3,N/A,,Scattered Clouds,300,2012-10-06 16:54:00
12:54 PM,46.9,24.1,41,30.37,10.0,NW,12.7,19.6,N/A,,Mostly Cloudy,320,2012-10-06 17:54:00
1:54 PM,46.9,24.1,41,30.35,10.0,NNW,15.0,25.3,N/A,,Mostly Cloudy,330,2012-10-06 18:54:00
2:54 PM,48.0,24.1,39,30.33,10.0,NNW,13.8,21.9,N/A,,Mostly Cloudy,330,2012-10-06 19:54:00
3:54 PM,48.0,21.9,36,30.31,10.0,NW,11.5,16.1,N/A,,Mostly Cloudy,320,2012-10-06 20:54:00
4:54 PM,50.0,23.0,35,30.30,10.0,NW,13.8,21.9,N/A,,Mostly Cloudy,320,2012-10-06 21:54:00
6:54 PM,43.0,21.9,43,30.32,7.0,NW,6.9,-,N/A,,Scattered Clouds,320,2012-10-06 23:54:00
7:54 PM,37.9,23.0,55,30.33,10.0,WNW,4.6,-,N/A,,Partly Cloudy,300,2012-10-07 00:54:00
8:54 PM,34.0,19.9,56,30.33,10.0,West,6.9,-,N/A,,Clear,280,2012-10-07 01:54:00
9:54 PM,33.1,21.0,61,30.33,10.0,West,8.1,-,N/A,,Clear,270,2012-10-07 02:54:00
10:54 PM,34.0,23.0,64,30.32,10.0,West,8.1,-,N/A,,Clear,280,2012-10-07 03:54:00
11:54 PM,33.1,21.9,64,30.31,10.0,West,8.1,-,N/A,,Clear,280,2012-10-07 04:54:00